Alturas, CA

5:40 AM PDT on April 24, 2018 (GMT -0700)
Alturas Municipal

Weather History for KAAT - January, 2014

Change the Weather History Date:

Thursday, January 2, 2014

  Actual Average Record
Temperature  
Mean Temperature 34 °F 29 °F  
Max Temperature 54 °F 40 °F 65 °F (1918)
Min Temperature 13 °F 18 °F -20 °F (1912)
Degree Days  
Heating Degree Days 31 36  
Month to date heating degree days 61 72  
Since 1 July heating degree days 3078 2982  
Cooling Degree Days 0 0  
Month to date cooling degree days 0 0  
Year to date cooling degree days 0 0  
Moisture  
Dew Point 19 °F    
Average Humidity 61    
Maximum Humidity 92    
Minimum Humidity 29    
Precipitation  
Precipitation 0.00 in 0.08 in 0.51 in (1997)
Month to date precipitation 0.00 0.16  
Year to date precipitation 0.00 0.16  
Sea Level Pressure  
Sea Level Pressure 30.29 in    
Wind  
Wind Speed 1 mph (North)    
Max Wind Speed 7 mph    
Max Gust Speed 8 mph    
Visibility 9 miles    
Events      
T = Trace of Precipitation, MM = Missing Value Source: NWS Daily Summary

Daily Weather History Graph

Daily Weather History Graph

Search for Another Location

Airport or City:

Astronomy

Jan. 02, 2014 Rise Set
Actual Time 7:28 AM PST 4:44 PM PST
Civil Twilight 6:57 AM PST 5:15 PM PST
Nautical Twilight 6:22 AM PST 5:50 PM PST
Astronomical Twilight 5:49 AM PST 6:23 PM PST
Moon 8:12 AM PST (1/2) 6:49 PM PST (1/2)
Length of Visible Light 10h 17m
Length of Day
9h 15m
Waxing Crescent, 3% of the Moon is Illuminated
Jan 2
Waxing Crescent
Jan 7
First Quarter
Jan 15
Full
Jan 23
Last Quarter
Jan 30
New

Hourly Weather History & Observations

Time (PST) Temp. Windchill Dew Point Humidity Pressure Visibility Wind Dir Wind Speed Gust Speed Precip Events Conditions
12:55 AM 21.9 °F - 17.1 °F 82% 30.29 in 10.0 mi Calm Calm - N/A   Clear
1:55 AM 19.9 °F 12.1 °F 15.1 °F 81% 30.31 in 8.0 mi NNW 5.8 mph - N/A   Clear
2:55 AM 21.0 °F 13.4 °F 17.1 °F 85% 30.31 in 10.0 mi NNW 5.8 mph - N/A   Clear
3:55 AM 19.9 °F - 17.1 °F 89% 30.31 in 8.0 mi Calm Calm - N/A   Clear
4:55 AM 17.1 °F - 15.1 °F 92% 30.34 in 10.0 mi Calm Calm - N/A   Clear
5:55 AM 15.1 °F - 12.0 °F 88% 30.36 in 6.0 mi Calm Calm - N/A   Clear
6:55 AM 14.0 °F 8.2 °F 10.9 °F 88% 30.38 in 10.0 mi NNW 3.5 mph - N/A   Clear
7:55 AM 15.1 °F 9.4 °F 12.0 °F 88% 30.39 in 10.0 mi NW 3.5 mph - N/A   Clear
8:55 AM 24.1 °F - 18.0 °F 77% 30.38 in 9.0 mi Calm Calm - N/A   Clear
9:55 AM 32.0 °F - 23.0 °F 69% 30.38 in 10.0 mi Calm Calm - N/A   Clear
10:55 AM 39.9 °F - 24.1 °F 53% 30.33 in 10.0 mi Calm Calm - N/A   Clear
11:55 AM 45.0 °F - 24.1 °F 44% 30.30 in 10.0 mi Calm Calm - N/A   Clear
12:55 PM 48.9 °F - 24.1 °F 38% 30.26 in 10.0 mi SSE 3.5 mph - N/A   Clear
1:55 PM 52.0 °F - 24.1 °F 34% 30.23 in 10.0 mi Calm Calm - N/A   Clear
2:55 PM 53.1 °F - 23.0 °F 31% 30.22 in 10.0 mi Calm Calm - N/A   Clear
3:55 PM 52.0 °F - 23.0 °F 32% 30.22 in 10.0 mi SE 3.5 mph - N/A   Clear
4:55 PM 43.0 °F 41.3 °F 21.0 °F 42% 30.25 in 10.0 mi ESE 3.5 mph - N/A   Clear
5:55 PM 35.1 °F - 21.0 °F 57% 30.28 in 7.0 mi Calm Calm - N/A   Clear
6:55 PM 28.9 °F - 18.0 °F 64% 30.29 in 7.0 mi Calm Calm - N/A   Clear
7:55 PM 28.0 °F - 19.0 °F 69% 30.29 in 10.0 mi Calm Calm - N/A   Clear
8:55 PM 25.0 °F - 18.0 °F 75% 30.27 in 5.0 mi Calm Calm - N/A   Haze
9:55 PM 24.1 °F - 17.1 °F 75% 30.26 in 7.0 mi Calm Calm - N/A   Clear
10:55 PM 24.1 °F - 18.0 °F 77% 30.23 in 10.0 mi Calm Calm - N/A   Clear
11:31 PM 21.9 °F - 17.1 °F 82% 30.16 in 2.0 mi Calm Calm - N/A   Haze
11:55 PM 19.0 °F - 15.1 °F 85% 30.21 in 7.0 mi Calm Calm - N/A   Clear